{"data":{"norad_id":65606,"epoch":"2026-05-25T03:55:39.016992Z","epoch_age_seconds":60890,"freshness":"FRESH","line1":"1 65606U 25207Q   26145.16364603  .00001537  00000+0  11052-3 0  9993","line2":"2 65606  97.4474 213.7566 0001253 117.6778 242.4576 15.05651857 39777","mean_motion":15.05651857,"eccentricity":0.0001253,"inclination_deg":97.4474,"raan_deg":213.7566,"arg_perigee_deg":117.6778,"mean_anomaly_deg":242.4576,"bstar":0.00011052,"rev_number":3977,"period_min":95.639638958052,"perigee_km":548.6374242816,"apogee_km":550.37349148154,"semimajor_km":6927.6424578816,"source":"CELESTRAK","updated_at":"2026-05-25T13:38:20.854992Z"}}